User: anonymous   Login
Location: Fort Wayne
(41.1310°N, 85.1290°W)
Time: 15:58:21
(UTC-05:00)
Language:

SR - Orbit

View from above orbital plane
View from above orbital plane
View from above satellite
View from above satellite

Ground track
Ground track

The orbit data is extracted from the following two-line orbital elements,

1 00046U 60007B   14327.01184173  .00002108  00000-0  44324-3 0  7882
2 00046 066.6907 138.1095 0217203 208.0701 150.8560 14.48004088844509
Epoch (UTC): 23 November 2014 00:17:03
Eccentricity: 0.0217203
inclination: 66.6907°
perigee height: 578 km
apogee height: 886 km
right ascension of ascending node: 138.1095°
argument of perigee: 208.0701°
revolutions per day: 14.48004088
mean anomaly at epoch: 150.8560°
orbit number at epoch: 84450

The dashed part of the orbit path shows where the satellite is in the earth's shadow,  

DLR